Hourly Data Report for October 20, 2013

All times are specified in Local Standard Time (LST). Add 1 hour to adjust for Daylight Saving Time where and when it is observed.

GRISE FIORD CLIMATE
NUNAVUT

76°25'22.040" N
82°54'08.020" W
44.50 m
2402351
71971
NGC

Download Data

Hourly Data (October 2013)
Hourly Data Report for October 20, 2013
Temp Definition
°C
Dew Point Temp Definition
°C
Rel Hum Definition
%
Wind Dir Definition
10's deg

Wind Spd Definition
km/h
Visibility Definition
km
Stn Press Definition
kPa
Hmdx Definition


Wind Chill Definition


Weather Definition


TIME
00:00 -4.3 -6.6 84 16 4   101.45   -6 LegendNANA
01:00 -4.7 -6.9 85   0   101.46     LegendNANA
02:00 -4.9 -6.9 86 12 6   101.45   -8 LegendNANA
03:00 -4.4 -6.7 84 13 4   101.47   -6 LegendNANA
04:00 -4.4 -6.5 85   0   101.46     LegendNANA
05:00 -4.9 -6.8 87 15 2   101.47   -6 LegendNANA
06:00 -5.4 -7.1 88 14 4   101.48   -7 LegendNANA
07:00 -5.2 -6.9 88 13 7   101.46   -8 LegendNANA
08:00 -4.2 -6.5 84 17 2   101.48   -5 LegendNANA
09:00 -4.8 -6.2 90 13 6   101.50   -8 LegendNANA
10:00 -5.1 -6.8 88 13 2   101.50   -6 LegendNANA
11:00 -5.1 -6.6 89 11 4   101.50   -7 LegendNANA
12:00 -5.2 -6.6 90 12 13   101.52   -10 LegendNANA
13:00 -4.4 -6.4 86 36 7   101.53   -8 LegendNANA
14:00 -4.8 -6.5 88 3 6   101.53   -8 LegendNANA
15:00 -5.6 -6.8 91 12 6   101.57   -8 LegendNANA
16:00 -5.5 -7.0 89 16 2   101.60   -6 LegendNANA
17:00 -5.5 -6.4 93 10 6   101.61   -8 LegendNANA
18:00 -5.5 -6.5 93 17 2   101.63   -6 LegendNANA
19:00 -5.2 -5.8 96 13 6   101.64   -8 LegendNANA
20:00 -5.2 -5.8 96 21 4   101.64   -7 LegendNANA
21:00 -5.9 -6.0 99 23 2   101.67   -7 LegendNANA
22:00 -5.8 -5.8 100 9 2   101.64   -7 LegendNANA
23:00 -6.3 -6.4 99 16 2   101.65   -7 LegendNANA

Notes on Data Quality.

Legend

  • E = Estimated
  • M = Missing
  • NA = Not Available
  • ‡ = Partner data that is not subject to review by the National Climate Archives
Date modified: